Date String (YYYY-MM-DD hh:mm:ss) UTC,Instrument flags,absolute air pressure of the measurement (hPa),sample flow rate (lpm),inlet stack bypass flow (lpm),air temperature of the measurement (°C),ambient temperature measured by the external sensor (°C),aerosol sample conditioner tube jacket temperature (°C),OPC LED temperature (°C),internal box temperature (°C),relative humidity of the measurement (%),span deviation,mass concentration of particles derived from Lorenz-Mie calculation of OPC scattering (μg/m³),mass concentration of particles derived from Lorenz-Mie calculation of OPC scattering (μg/m³),mass concentration of particles derived from Lorenz-Mie calculation of OPC scattering (μg/m³)
DateTimeUTC,F1_M11,P_M11,Q1_M11,Q2_M11,T1_M11,T2_M11,T3_M11,T4_M11,T5_M11,U1_M11,ZSPAN_M11,X0_M11,X2_M11,X1_M11
2023-11-29 05:00:00,SystemResetWarning,0831.5,5.00,000.00,022.0,020.9,000.0,030.5,023.2,8.9,0000.0,0008.65,0003.80,0003.50
2023-11-29 05:01:00,SystemResetWarning,0831.4,5.00,000.00,022.0,020.9,000.0,030.5,023.1,9.1,0000.0,0008.51,0003.69,0003.42
2023-11-29 05:02:00,SystemResetWarning,0831.4,5.00,000.00,021.9,020.9,000.0,030.4,023.1,8.8,0000.0,0008.41,0003.61,0003.34
2023-11-29 05:03:00,SystemResetWarning,0831.4,5.00,000.00,021.9,020.9,000.0,030.4,023.1,8.5,0000.0,0008.51,0003.54,0003.27
2023-11-29 05:04:00,SystemResetWarning,0831.5,5.00,000.00,021.9,020.9,000.0,030.4,023.2,8.7,0000.0,0008.49,0003.49,0003.21
2023-11-29 05:05:00,SystemResetWarning,0831.5,5.00,000.00,021.9,020.8,000.0,030.4,023.2,9.3,0000.0,0008.60,0003.45,0003.17
2023-11-29 05:06:00,SystemResetWarning,0831.5,5.00,000.00,021.9,020.8,000.0,030.4,023.2,9.3,0000.0,0008.62,0003.42,0003.15
2023-11-29 05:07:00,SystemResetWarning,0831.5,5.00,000.00,021.9,020.8,000.0,030.4,023.1,8.8,0000.0,0008.32,0003.38,0003.12
2023-11-29 05:08:00,SystemResetWarning,0831.5,5.00,000.00,021.9,020.8,000.0,030.4,023.1,8.8,0000.0,0008.17,0003.31,0003.08
2023-11-29 05:09:00,SystemResetWarning,0831.4,5.00,000.00,021.8,020.8,000.0,030.4,023.1,8.6,0000.0,0008.34,0003.25,0002.98
2023-11-29 05:10:00,SystemResetWarning,0831.4,5.00,000.00,021.8,020.7,000.0,030.3,023.0,8.4,0000.0,0007.96,0003.22,0002.94
2023-11-29 05:11:00,SystemResetWarning,0831.4,5.00,000.00,021.8,020.7,000.0,030.3,023.0,8.5,0000.0,0006.90,0003.25,0002.97
2023-11-29 05:12:00,SystemResetWarning,0831.4,5.00,000.00,021.8,020.7,000.0,030.3,023.0,8.3,0000.0,0007.03,0003.29,0003.03
2023-11-29 05:13:00,SystemResetWarning,0831.4,5.01,000.00,021.8,020.7,000.0,030.3,023.0,8.3,0000.0,0007.09,0003.27,0003.04
2023-11-29 05:14:00,SystemResetWarning,0831.4,5.00,000.00,021.7,020.7,000.0,030.3,022.9,8.1,0000.0,0006.87,0003.24,0003.04
2023-11-29 05:15:00,SystemResetWarning,0831.3,5.00,000.00,021.7,020.7,000.0,030.3,022.9,8.1,0000.0,0006.62,0003.23,0003.02
2023-11-29 05:16:00,SystemResetWarning,0831.3,5.01,000.00,021.7,020.7,000.0,030.2,022.9,8.2,0000.0,0006.38,0003.19,0002.95
2023-11-29 05:17:00,SystemResetWarning,0831.3,5.00,000.00,021.7,020.7,000.0,030.2,022.9,8.4,0000.0,0005.99,0003.14,0002.89
2023-11-29 05:18:00,SystemResetWarning,0831.3,5.01,000.00,021.7,020.7,000.0,030.2,022.9,8.3,0000.0,0005.88,0003.08,0002.78
2023-11-29 05:19:00,SystemResetWarning,0831.3,5.00,000.00,021.7,020.7,000.0,030.2,022.9,8.5,0000.0,0005.04,0003.04,0002.71
2023-11-29 05:20:00,SystemResetWarning,0831.3,5.00,000.00,021.7,020.7,000.0,030.2,022.9,8.6,0000.0,0004.10,0002.96,0002.68
2023-11-29 05:21:00,SystemResetWarning,0831.3,5.00,000.00,021.7,020.7,000.0,030.2,022.9,8.3,0000.0,0004.13,0002.95,0002.64
2023-11-29 05:22:00,SystemResetWarning,0831.3,5.00,000.00,021.7,020.6,000.0,030.2,023.0,8.2,0000.0,0004.00,0002.84,0002.54
2023-11-29 05:23:00,SystemResetWarning,0831.3,5.00,000.00,021.7,020.6,000.0,030.1,022.9,8.1,0000.0,0003.77,0002.73,0002.44
2023-11-29 05:24:00,SystemResetWarning,0831.3,5.00,000.00,021.7,020.6,000.0,030.1,022.9,8.0,0000.0,0003.55,0002.68,0002.39
2023-11-29 05:25:00,SystemResetWarning,0831.3,5.00,000.00,021.7,020.6,000.0,030.1,022.9,8.0,0000.0,0003.57,0002.71,0002.40
2023-11-29 05:26:00,SystemResetWarning,0831.3,5.00,000.00,021.6,020.6,000.0,030.1,022.8,8.0,0000.0,0003.66,0002.74,0002.42
2023-11-29 05:27:00,SystemResetWarning,0831.3,5.00,000.00,021.6,020.6,000.0,030.1,022.8,7.9,0000.0,0003.85,0002.78,0002.42
2023-11-29 05:28:00,SystemResetWarning,0831.3,5.00,000.00,021.6,020.6,000.0,030.1,022.8,7.8,0000.0,0003.90,0002.77,0002.41
2023-11-29 05:29:00,SystemResetWarning,0831.3,5.00,000.00,021.6,020.6,000.0,030.1,022.8,7.8,0000.0,0004.02,0002.80,0002.41
2023-11-29 05:30:00,SystemResetWarning,0831.3,4.99,000.00,021.6,020.6,000.0,030.1,022.7,7.9,0000.0,0004.03,0002.80,0002.43
2023-11-29 05:31:00,SystemResetWarning,0831.3,5.00,000.00,021.5,020.5,000.0,030.0,022.7,8.4,0000.0,0004.31,0002.86,0002.44
2023-11-29 05:32:00,SystemResetWarning,0831.3,5.00,000.00,021.5,020.5,000.0,030.0,022.6,8.3,0000.0,0004.27,0002.84,0002.44
2023-11-29 05:33:00,SystemResetWarning,0831.3,5.01,000.00,021.5,020.5,000.0,030.0,022.6,8.3,0000.0,0005.10,0002.75,0002.40
2023-11-29 05:34:00,SystemResetWarning,0831.3,5.00,000.00,021.5,020.5,000.0,030.0,022.5,8.9,0000.0,0005.42,0002.70,0002.35
2023-11-29 05:35:00,SystemResetWarning,0831.3,5.00,000.00,021.4,020.4,000.0,030.0,022.6,8.7,0000.0,0005.64,0002.71,0002.30
2023-11-29 05:36:00,SystemResetWarning,0831.3,5.01,000.00,021.4,020.4,000.0,030.0,022.6,7.8,0000.0,0006.21,0002.67,0002.26
2023-11-29 05:37:00,SystemResetWarning,0831.3,5.01,000.00,021.4,020.4,000.0,030.0,022.6,7.5,0000.0,0006.13,0002.62,0002.22
2023-11-29 05:38:00,SystemResetWarning,0831.3,5.00,000.00,021.4,020.4,000.0,029.9,022.6,7.4,0000.0,0005.93,0002.60,0002.20
2023-11-29 05:39:00,SystemResetWarning,0831.2,5.00,000.00,021.4,020.4,000.0,029.9,022.6,7.4,0000.0,0005.93,0002.60,0002.19
2023-11-29 05:40:00,SystemResetWarning,0831.3,5.00,000.00,021.4,020.4,000.0,029.9,022.6,7.4,0000.0,0005.83,0002.62,0002.24
2023-11-29 05:41:00,SystemResetWarning,0831.2,5.00,000.00,021.4,020.4,000.0,029.9,022.5,7.5,0000.0,0005.83,0002.64,0002.27
2023-11-29 05:42:00,SystemResetWarning,0831.2,5.00,000.00,021.4,020.3,000.0,029.9,022.5,7.5,0000.0,0005.49,0002.53,0002.19
2023-11-29 05:43:00,SystemResetWarning,0831.2,4.99,000.00,021.3,020.3,000.0,029.9,022.5,7.5,0000.0,0005.34,0002.42,0002.08
2023-11-29 05:44:00,SystemResetWarning,0831.1,5.00,000.00,021.3,020.3,000.0,029.9,022.5,7.5,0000.0,0004.50,0002.33,0002.00
2023-11-29 05:45:00,SystemResetWarning,0831.2,5.00,000.00,021.3,020.3,000.0,029.8,022.5,7.4,0000.0,0003.72,0002.24,0001.92
2023-11-29 05:46:00,SystemResetWarning,0831.1,5.00,000.00,021.3,020.3,000.0,029.8,022.4,7.4,0000.0,0003.41,0002.12,0001.87
2023-11-29 05:47:00,SystemResetWarning,0831.1,5.00,000.00,021.3,020.2,000.0,029.8,022.4,7.4,0000.0,0002.66,0002.03,0001.80
2023-11-29 05:48:00,SystemResetWarning,0831.1,5.01,000.00,021.3,020.2,000.0,029.8,022.4,7.4,0000.0,0002.53,0001.93,0001.70
2023-11-29 05:49:00,SystemResetWarning,0831.1,5.01,000.00,021.3,020.2,000.0,029.8,022.4,7.6,0000.0,0002.36,0001.82,0001.62
2023-11-29 05:50:00,SystemResetWarning,0831.1,4.99,000.00,021.2,020.2,000.0,029.8,022.4,7.5,0000.0,0002.20,0001.73,0001.56
2023-11-29 05:51:00,SystemResetWarning,0831.1,4.99,000.00,021.2,020.2,000.0,029.7,022.3,7.4,0000.0,0002.07,0001.61,0001.43
2023-11-29 05:52:00,SystemResetWarning,0831.1,5.00,000.00,021.2,020.2,000.0,029.7,022.3,7.2,0000.0,0001.95,0001.50,0001.32
2023-11-29 05:53:00,SystemResetWarning,0831.2,5.00,000.00,021.2,020.1,000.0,029.7,022.3,7.2,0000.0,0001.95,0001.50,0001.32
2023-11-29 05:54:00,SystemResetWarning,0831.1,5.01,000.00,021.2,020.0,000.0,029.7,022.3,7.1,0000.0,0002.04,0001.55,0001.36
2023-11-29 05:55:00,SystemResetWarning,0831.1,5.01,000.00,021.1,020.0,000.0,029.7,022.2,7.1,0000.0,0002.16,0001.64,0001.43
2023-11-29 05:56:00,SystemResetWarning,0831.0,5.01,000.00,021.1,020.0,000.0,029.7,022.2,7.1,0000.0,0002.27,0001.72,0001.49
2023-11-29 05:57:00,SystemResetWarning,0831.0,5.00,000.00,021.1,020.0,000.0,029.6,022.2,7.0,0000.0,0002.28,0001.72,0001.49
2023-11-29 05:58:00,SystemResetWarning,0830.9,4.99,000.00,021.0,019.9,000.0,029.6,022.1,7.2,0000.0,0002.29,0001.71,0001.47
2023-11-29 05:59:00,SystemResetWarning,0830.9,4.99,000.00,021.0,019.9,000.0,029.6,022.1,7.2,0000.0,0002.25,0001.67,0001.43
